STARLINK-1623, 46129

Orbit data source: Space-Track

STARLINK-1623, 46129 is a payload satellite owned by SpaceX/Seattle (US) in LEO that was launched on Tue, 18 Aug 2020 UTC via an FALCON 9 launch vehicle from the Air Force Eastern Test Range (AFETR). Payload-class satellites include a variety of spacecraft equipped with specific instruments for various scientific and technological missions. These include communications satellites like Starlink; space stations such as the ISS; scientific satellites like the Hubble; Earth observation satellites from companies like Planet Labs, Umbra, and HawkEye 360; GPS; miniature CubeSats for education and research; and military/defense satellites.

Loading next visibility...
Identifier
46129, 2020-057N
Orbit
LEO
Country
Flag of USUS
Related business
Manufacturer
SpaceX/Seattle
Mission
Operational Commercial Communications
Bus & Motor
STARLINK, Unknown motor
Mass
260 kg wet, ~248 kg dry
Launch date (UTC)
2020-08-18 (5 years ago)
Launch vehicle
FALCON 9
Launch site
Air Force Eastern Test Range (AFETR)
Object type
Payload
Rocket body
Debris
Shape & HBR
Box + 1 Pan, 10.1 m
Radar Cross Section
13.562 m², Large (>1 m²)

Expand to show TLE details & history
Last TLE update: 23 hours ago

TLE from 23 hours ago
0 STARLINK-1623
1 46129U 20057N   25312.83471404  .00000771  00000-0  70674-4 0  9993
2 46129  53.0526  99.1587 0001517  85.3874 274.7288 15.06404552288416
Epoch: 2025-11-08T20:01Z
TLE epoch observation values (Epoch: 2025-11-08T20:01:59.293Z)
Latitude
-0.00002°
Longitude
110.403°
Altitude
547.99 km
Speed
7.589 km/s
True Right ascension
06h 36m 38s
True Declination
0° 00' 00"
Sunlit
Object was in full shadow at epoch
Visualization orbit readout
Latitude
Unknown
Longitude
Unknown
Altitude
Unknown
Speed
Unknown
Apparent Right ascension
Unknown
Apparent Declination
Unknown
Sunlit
N/A
Visualization observer readout
Local Sidereal Time
15:32:26
Azimuth
Unknown
Elevation
Unknown
Doppler factor
Unknown
Orbital elements
Apogee altitude
548.519 km
Perigee altitude
546.418 km
Semi-major axis
6,925.606 km
Eccentricity
0.00015
Inclination
53.0526°
RAAN
99.1587°
Arg. of periapsis
85.3874°
True anomaly
274.71148°
Mean anomaly
274.7288°
Eccentric anomaly
274.72014°
Mean motion
3.76579 °/min
Orbital period
95.6 mins
BSTAR
0.000070674
Loading maneuver chart data...
Computing Atmospheric mass density...

Documentation

Showing up to 5 results
|